10-08-2022, 00:00:05,    120,    0.0,   16.9,   0.00,   0.00, 1024.0,   58.6, -999.0
10-08-2022, 00:00:14,    120,    0.0,   16.9,   0.00,   0.00, 1024.0,   58.6, -999.0
10-08-2022, 00:00:25,    120,    0.0,   16.9,   0.00,   0.00, 1024.0,   58.7, -999.0
10-08-2022, 00:00:35,    120,    0.0,   16.9,   0.00,   0.00, 1024.0,   58.7, -999.0
10-08-2022, 00:00:44,    120,    0.0,   16.9,   0.00,   0.00, 1024.0,   58.7, -999.0
10-08-2022, 00:00:54,    120,    0.0,   16.8,   0.00,   0.00, 1024.0,   58.7, -999.0
10-08-2022, 00:01:04,    120,    0.0,   16.9,   0.00,   0.00, 1024.0,   58.6, -999.0
10-08-2022, 00:01:14,    120,    0.0,   16.9,   0.00,   0.00, 1024.0,   58.5, -999.0
10-08-2022, 00:01:24,    120,    0.0,   16.9,   0.00,   0.00, 1024.0,   58.5, -999.0
10-08-2022, 00:01:34,    120,    0.0,   17.0,   0.00,   0.00, 1024.0,   58.5, -999.0
10-08-2022, 00:01:44,    120,    0.0,   17.0,   0.00,   0.00, 1024.0,   58.4, -999.0
10-08-2022, 00:01:54,    120,    0.0,   16.9,   0.00,   0.00, 1024.0,   58.5, -999.0
10-08-2022, 00:02:04,    120,    0.0,   16.9,   0.00,   0.00, 1023.9,   58.6, -999.0
10-08-2022, 00:02:14,    120,    0.0,   16.9,   0.00,   0.00, 1023.9,   58.7, -999.0
10-08-2022, 00:02:24,    120,    0.0,   16.8,   0.00,   0.00, 1024.0,   58.7, -999.0
10-08-2022, 00:02:34,    120,    0.0,   16.8,   0.00,   0.00, 1023.9,   58.9, -999.0
10-08-2022, 00:02:44,    120,    0.0,   16.8,   0.00,   0.00, 1024.0,   58.8, -999.0
10-08-2022, 00:02:54,    120,    0.0,   16.8,   0.00,   0.00, 1024.0,   58.9, -999.0
10-08-2022, 00:03:03,    120,    0.0,   16.7,   0.00,   0.00, 1023.9,   59.0, -999.0
10-08-2022, 00:03:14,    121,    0.0,   16.7,   0.00,   0.00, 1024.0,   59.3, -999.0
10-08-2022, 00:03:23,    120,    0.0,   16.6,   0.00,   0.00, 1023.9,   59.3, -999.0
10-08-2022, 00:03:33,    120,    0.0,   16.7,   0.00,   0.00, 1023.9,   59.3, -999.0
10-08-2022, 00:03:44,    120,    0.0,   16.6,   0.00,   0.00, 1023.9,   59.3, -999.0
10-08-2022, 00:03:53,    120,    0.0,   16.6,   0.00,   0.00, 1023.9,   59.5, -999.0
10-08-2022, 00:04:03,    120,    0.0,   16.6,   0.00,   0.00, 1023.9,   59.5, -999.0
10-08-2022, 00:04:13,    120,    0.0,   16.6,   0.00,   0.00, 1023.9,   59.6, -999.0
10-08-2022, 00:04:23,    120,    0.0,   16.6,   0.00,   0.00, 1023.9,   59.6, -999.0
10-08-2022, 00:04:33,    120,    0.0,   16.5,   0.00,   0.00, 1023.9,   59.6, -999.0
10-08-2022, 00:04:43,    120,    0.0,   16.5,   0.00,   0.00, 1023.9,   59.7, -999.0
10-08-2022, 00:04:53,    119,    0.0,   16.5,   0.00,   0.00, 1023.9,   59.7, -999.0
10-08-2022, 00:05:03,    120,    0.0,   16.5,   0.00,   0.00, 1024.0,   59.8, -999.0
10-08-2022, 00:05:13,    120,    0.0,   16.5,   0.00,   0.00, 1023.9,   59.9, -999.0
10-08-2022, 00:05:23,    120,    0.0,   16.5,   0.00,   0.00, 1024.0,   59.8, -999.0
10-08-2022, 00:05:32,    120,    0.0,   16.5,   0.00,   0.00, 1023.9,   59.8, -999.0
10-08-2022, 00:05:43,    120,    0.0,   16.5,   0.00,   0.00, 1023.9,   59.8, -999.0
10-08-2022, 00:05:53,    120,    0.0,   16.5,   0.00,   0.00, 1024.0,   59.8, -999.0
10-08-2022, 00:06:02,    120,    0.0,   16.5,   0.00,   0.00, 1023.9,   60.0, -999.0
10-08-2022, 00:06:13,    120,    0.0,   16.6,   0.00,   0.00, 1023.9,   59.9, -999.0
10-08-2022, 00:06:23,    120,    0.0,   16.5,   0.00,   0.00, 1023.9,   59.8, -999.0
10-08-2022, 00:06:32,    120,    0.0,   16.5,   0.00,   0.00, 1024.0,   59.9, -999.0
10-08-2022, 00:06:42,    120,    0.0,   16.5,   0.00,   0.00, 1023.9,   60.0, -999.0
10-08-2022, 00:06:52,    120,    0.0,   16.5,   0.00,   0.00, 1023.9,   60.0, -999.0
10-08-2022, 00:07:02,    119,    0.0,   16.5,   0.00,   0.00, 1023.9,   60.1, -999.0
10-08-2022, 00:07:12,    120,    0.0,   16.4,   0.00,   0.00, 1023.9,   60.1, -999.0
10-08-2022, 00:07:22,    120,    0.0,   16.5,   0.00,   0.00, 1023.9,   60.1, -999.0
10-08-2022, 00:07:32,    120,    0.0,   16.4,   0.00,   0.00, 1023.9,   60.1, -999.0
10-08-2022, 00:07:42,    121,    0.0,   16.5,   0.00,   0.00, 1023.9,   60.2, -999.0
10-08-2022, 00:07:52,    120,    0.0,   16.4,   0.00,   0.00, 1024.0,   60.2, -999.0
10-08-2022, 00:08:02,    120,    0.0,   16.4,   0.00,   0.00, 1023.9,   60.2, -999.0
10-08-2022, 00:08:12,    120,    0.0,   16.5,   0.00,   0.00, 1023.9,   60.1, -999.0
10-08-2022, 00:08:22,    120,    0.0,   16.4,   0.00,   0.00, 1023.9,   60.3, -999.0
10-08-2022, 00:08:32,    120,    0.0,   16.4,   0.00,   0.00, 1024.0,   60.3, -999.0
10-08-2022, 00:08:42,    120,    0.0,   16.4,   0.00,   0.00, 1023.9,   60.3, -999.0
10-08-2022, 00:08:52,    120,    0.0,   16.4,   0.00,   0.00, 1024.0,   60.3, -999.0
10-08-2022, 00:09:01,    120,    0.0,   16.4,   0.00,   0.00, 1024.0,   60.5, -999.0
10-08-2022, 00:09:11,    120,    0.0,   16.3,   0.00,   0.00, 1023.9,   60.4, -999.0
10-08-2022, 00:09:22,    120,    0.0,   16.4,   0.00,   0.00, 1024.0,   60.5, -999.0
10-08-2022, 00:09:31,    120,    0.0,   16.4,   0.00,   0.00, 1024.0,   60.5, -999.0
10-08-2022, 00:09:41,    120,    0.0,   16.3,   0.00,   0.00, 1024.0,   60.6, -999.0
10-08-2022, 00:09:51,    120,    0.0,   16.3,   0.00,   0.00, 1023.9,   60.6, -999.0
10-08-2022, 00:10:01,    120,    0.0,   16.3,   0.00,   0.00, 1024.0,   60.7, -999.0
10-08-2022, 00:10:11,    120,    0.0,   16.3,   0.00,   0.00, 1024.0,   60.7, -999.0
10-08-2022, 00:10:21,    120,    0.0,   16.3,   0.00,   0.00, 1023.9,   60.7, -999.0
10-08-2022, 00:10:31,    120,    0.0,   16.3,   0.00,   0.00, 1023.9,   60.9, -999.0
10-08-2022, 00:10:41,    120,    0.0,   16.2,   0.00,   0.00, 1023.9,   60.9, -999.0
10-08-2022, 00:10:51,    120,    0.0,   16.3,   0.00,   0.00, 1023.9,   60.9, -999.0
10-08-2022, 00:11:01,    120,    0.0,   16.3,   0.00,   0.00, 1024.0,   60.9, -999.0
10-08-2022, 00:11:11,    120,    0.0,   16.3,   0.00,   0.00, 1024.0,   60.9, -999.0
10-08-2022, 00:11:21,    120,    0.0,   16.3,   0.00,   0.00, 1023.9,   60.9, -999.0
10-08-2022, 00:11:31,    120,    0.0,   16.3,   0.00,   0.00, 1024.0,   60.9, -999.0
10-08-2022, 00:11:40,    120,    0.0,   16.3,   0.00,   0.00, 1023.9,   61.0, -999.0
10-08-2022, 00:11:51,    120,    0.0,   16.1,   0.00,   0.00, 1023.9,   61.1, -999.0
10-08-2022, 00:12:00,    120,    0.0,   16.2,   0.00,   0.00, 1023.9,   61.2, -999.0
10-08-2022, 00:12:10,    120,    0.0,   16.1,   0.00,   0.00, 1023.9,   61.2, -999.0
10-08-2022, 00:12:20,    120,    0.0,   16.1,   0.00,   0.00, 1023.9,   61.2, -999.0
10-08-2022, 00:12:30,    120,    0.0,   16.1,   0.00,   0.00, 1023.9,   61.4, -999.0
10-08-2022, 00:12:40,    120,    0.0,   16.0,   0.00,   0.00, 1023.9,   61.4, -999.0
10-08-2022, 00:12:50,    120,    0.0,   16.1,   0.00,   0.00, 1023.9,   61.5, -999.0
10-08-2022, 00:13:00,    120,    0.0,   16.1,   0.00,   0.00, 1023.9,   61.6, -999.0
10-08-2022, 00:13:10,    120,    0.0,   16.0,   0.00,   0.00, 1023.9,   61.8, -999.0
10-08-2022, 00:13:20,    120,    0.0,   16.0,   0.00,   0.00, 1023.9,   61.8, -999.0
10-08-2022, 00:13:30,    121,    0.0,   15.9,   0.00,   0.00, 1023.9,   61.9, -999.0
10-08-2022, 00:13:40,    120,    0.0,   16.0,   0.00,   0.00, 1023.9,   62.0, -999.0
10-08-2022, 00:13:50,    120,    0.0,   15.9,   0.00,   0.00, 1023.9,   62.0, -999.0
10-08-2022, 00:14:00,    121,    0.0,   15.8,   0.00,   0.00, 1023.9,   62.2, -999.0
10-08-2022, 00:14:09,    120,    0.0,   15.9,   0.00,   0.00, 1023.9,   62.3, -999.0
10-08-2022, 00:14:20,    120,    0.0,   15.8,   0.00,   0.00, 1023.9,   62.3, -999.0
10-08-2022, 00:14:30,    121,    0.0,   15.9,   0.00,   0.00, 1023.9,   62.6, -999.0
10-08-2022, 00:14:39,    120,    0.0,   15.8,   0.00,   0.00, 1023.9,   62.4, -999.0
10-08-2022, 00:14:49,    120,    0.0,   15.9,   0.00,   0.00, 1023.9,   62.6, -999.0
10-08-2022, 00:15:00,    120,    0.0,   15.8,   0.00,   0.00, 1023.9,   62.6, -999.0
10-08-2022, 00:15:09,    120,    0.0,   15.7,   0.00,   0.00, 1023.9,   62.5, -999.0
10-08-2022, 00:15:19,    120,    0.0,   15.7,   0.00,   0.00, 1023.9,   62.6, -999.0
10-08-2022, 00:15:29,    121,    0.0,   15.8,   0.00,   0.00, 1023.9,   62.7, -999.0
10-08-2022, 00:15:39,    120,    0.0,   15.8,   0.00,   0.00, 1023.9,   62.7, -999.0
10-08-2022, 00:15:49,    120,    0.0,   15.7,   0.00,   0.00, 1023.9,   62.7, -999.0
10-08-2022, 00:15:59,    120,    0.0,   15.7,   0.00,   0.00, 1023.9,   62.7, -999.0
10-08-2022, 00:16:09,    120,    0.0,   15.7,   0.00,   0.00, 1023.9,   62.8, -999.0
10-08-2022, 00:16:19,    120,    0.0,   15.6,   0.00,   0.00, 1023.9,   62.9, -999.0
10-08-2022, 00:16:29,    120,    0.0,   15.6,   0.00,   0.00, 1023.9,   62.9, -999.0
10-08-2022, 00:16:39,    120,    0.0,   15.6,   0.00,   0.00, 1023.9,   63.1, -999.0
10-08-2022, 00:16:49,    120,    0.0,   15.6,   0.00,   0.00, 1023.9,   63.1, -999.0
10-08-2022, 00:16:59,    121,    0.0,   15.6,   0.00,   0.00, 1023.9,   63.1, -999.0
10-08-2022, 00:17:09,    120,    0.0,   15.5,   0.00,   0.00, 1023.9,   63.2, -999.0
10-08-2022, 00:17:18,    120,    0.0,   15.6,   0.00,   0.00, 1023.9,   63.2, -999.0
10-08-2022, 00:17:29,    120,    0.0,   15.5,   0.00,   0.00, 1023.9,   63.3, -999.0
10-08-2022, 00:17:38,    120,    0.0,   15.5,   0.00,   0.00, 1023.9,   63.2, -999.0
10-08-2022, 00:17:48,    120,    0.0,   15.4,   0.00,   0.00, 1023.9,   63.4, -999.0
10-08-2022, 00:17:58,    120,    0.0,   15.4,   0.00,   0.00, 1023.9,   63.4, -999.0
10-08-2022, 00:18:08,    120,    0.0,   15.5,   0.00,   0.00, 1023.9,   63.4, -999.0
10-08-2022, 00:18:18,    120,    0.0,   15.5,   0.00,   0.00, 1023.9,   63.7, -999.0
10-08-2022, 00:18:28,    120,    0.0,   15.4,   0.00,   0.00, 1023.9,   63.8, -999.0
10-08-2022, 00:18:38,    120,    0.0,   15.5,   0.00,   0.00, 1023.9,   63.9, -999.0
10-08-2022, 00:18:48,    120,    0.0,   15.4,   0.00,   0.00, 1023.9,   63.9, -999.0
10-08-2022, 00:18:58,    120,    0.0,   15.4,   0.00,   0.00, 1023.9,   64.1, -999.0
10-08-2022, 00:19:08,    120,    0.0,   15.4,   0.00,   0.00, 1023.9,   64.1, -999.0
10-08-2022, 00:19:18,    120,    0.0,   15.4,   0.00,   0.00, 1023.9,   64.1, -999.0
10-08-2022, 00:19:28,    120,    0.0,   15.4,   0.00,   0.00, 1023.9,   64.2, -999.0
10-08-2022, 00:19:38,    120,    0.0,   15.3,   0.00,   0.00, 1023.9,   64.3, -999.0
10-08-2022, 00:19:47,    120,    0.0,   15.4,   0.00,   0.00, 1023.9,   64.3, -999.0
10-08-2022, 00:19:58,    120,    0.0,   15.4,   0.00,   0.00, 1023.9,   64.4, -999.0
10-08-2022, 00:20:08,    121,    0.0,   15.3,   0.00,   0.00, 1023.9,   64.4, -999.0
10-08-2022, 00:20:17,    120,    0.0,   15.3,   0.00,   0.00, 1023.9,   64.4, -999.0
10-08-2022, 00:20:28,    120,    0.0,   15.4,   0.00,   0.00, 1023.9,   64.6, -999.0
10-08-2022, 00:20:37,    120,    0.0,   15.3,   0.00,   0.00, 1023.9,   64.5, -999.0
10-08-2022, 00:20:47,    120,    0.0,   15.4,   0.00,   0.00, 1023.9,   64.5, -999.0
10-08-2022, 00:20:57,    120,    0.0,   15.4,   0.00,   0.00, 1023.9,   64.7, -999.0
10-08-2022, 00:21:07,    120,    0.0,   15.3,   0.00,   0.00, 1023.9,   64.6, -999.0
10-08-2022, 00:21:17,    120,    0.0,   15.2,   0.00,   0.00, 1023.9,   64.6, -999.0
10-08-2022, 00:21:27,    120,    0.0,   15.3,   0.00,   0.00, 1023.9,   64.7, -999.0
10-08-2022, 00:21:37,    120,    0.0,   15.3,   0.00,   0.00, 1023.9,   64.7, -999.0
10-08-2022, 00:21:47,    120,    0.0,   15.3,   0.00,   0.00, 1023.9,   64.9, -999.0
10-08-2022, 00:21:57,    120,    0.0,   15.3,   0.00,   0.00, 1023.9,   64.8, -999.0
10-08-2022, 00:22:07,    121,    0.0,   15.3,   0.00,   0.00, 1023.9,   64.8, -999.0
10-08-2022, 00:22:17,    120,    0.0,   15.2,   0.00,   0.00, 1023.9,   64.8, -999.0
10-08-2022, 00:22:27,    120,    0.0,   15.3,   0.00,   0.00, 1023.9,   65.0, -999.0
10-08-2022, 00:22:37,    120,    0.0,   15.3,   0.00,   0.00, 1023.9,   65.0, -999.0
10-08-2022, 00:22:46,    120,    0.0,   15.3,   0.00,   0.00, 1023.9,   64.9, -999.0
10-08-2022, 00:22:57,    120,    0.0,   15.2,   0.00,   0.00, 1023.9,   64.8, -999.0
10-08-2022, 00:23:07,    120,    0.0,   15.2,   0.00,   0.00, 1023.9,   64.9, -999.0
10-08-2022, 00:23:16,    120,    0.0,   15.2,   0.00,   0.00, 1023.9,   65.1, -999.0
10-08-2022, 00:23:26,    120,    0.0,   15.2,   0.00,   0.00, 1023.9,   65.0, -999.0
10-08-2022, 00:23:37,    121,    0.0,   15.2,   0.00,   0.00, 1023.9,   65.0, -999.0
10-08-2022, 00:23:46,    120,    0.0,   15.2,   0.00,   0.00, 1023.9,   65.0, -999.0
10-08-2022, 00:23:56,    120,    0.0,   15.2,   0.00,   0.00, 1023.9,   65.0, -999.0
10-08-2022, 00:24:06,    120,    0.0,   15.2,   0.00,   0.00, 1023.9,   65.0, -999.0
10-08-2022, 00:24:16,    120,    0.0,   15.2,   0.00,   0.00, 1023.9,   65.2, -999.0
10-08-2022, 00:24:26,    120,    0.0,   15.2,   0.00,   0.00, 1023.9,   65.3, -999.0
10-08-2022, 00:24:36,    120,    0.0,   15.2,   0.00,   0.00, 1023.9,   65.3, -999.0
10-08-2022, 00:24:46,    120,    0.0,   15.2,   0.00,   0.00, 1023.9,   65.1, -999.0
10-08-2022, 00:24:56,    120,    0.0,   15.1,   0.00,   0.00, 1023.9,   65.1, -999.0
10-08-2022, 00:25:06,    122,    0.0,   15.1,   0.00,   0.00, 1023.9,   65.1, -999.0
10-08-2022, 00:25:16,    120,    0.0,   15.2,   0.00,   0.00, 1023.9,   65.0, -999.0
10-08-2022, 00:25:26,    120,    0.0,   15.1,   0.00,   0.00, 1023.9,   65.1, -999.0
10-08-2022, 00:25:36,    120,    0.0,   15.1,   0.00,   0.00, 1023.9,   65.1, -999.0
10-08-2022, 00:25:46,    119,    0.0,   15.1,   0.00,   0.00, 1023.9,   65.1, -999.0
10-08-2022, 00:25:55,    120,    0.0,   15.1,   0.00,   0.00, 1023.9,   65.2, -999.0
10-08-2022, 00:26:06,    120,    0.0,   15.1,   0.00,   0.00, 1023.9,   65.2, -999.0
10-08-2022, 00:26:15,    120,    0.0,   15.1,   0.00,   0.00, 1023.9,   65.2, -999.0
10-08-2022, 00:26:25,    120,    0.0,   15.1,   0.00,   0.00, 1023.9,   65.1, -999.0
10-08-2022, 00:26:35,    120,    0.0,   15.1,   0.00,   0.00, 1023.9,   65.2, -999.0
10-08-2022, 00:26:45,    120,    0.0,   15.1,   0.00,   0.00, 1023.9,   65.2, -999.0
10-08-2022, 00:26:55,    120,    0.0,   15.1,   0.00,   0.00, 1023.9,   65.3, -999.0
10-08-2022, 00:27:05,    120,    0.0,   15.1,   0.00,   0.00, 1023.9,   65.3, -999.0
10-08-2022, 00:27:15,    120,    0.0,   15.1,   0.00,   0.00, 1023.9,   65.4, -999.0
10-08-2022, 00:27:25,    120,    0.0,   15.1,   0.00,   0.00, 1023.9,   65.4, -999.0
10-08-2022, 00:27:35,    120,    0.0,   15.0,   0.00,   0.00, 1023.9,   65.4, -999.0
10-08-2022, 00:27:45,    120,    0.0,   15.1,   0.00,   0.00, 1023.9,   65.4, -999.0
10-08-2022, 00:27:55,    121,    0.0,   15.1,   0.00,   0.00, 1023.9,   65.4, -999.0
10-08-2022, 00:28:05,    119,    0.0,   15.1,   0.00,   0.00, 1023.9,   65.6, -999.0
10-08-2022, 00:28:15,    120,    0.0,   15.1,   0.00,   0.00, 1023.9,   65.5, -999.0
10-08-2022, 00:28:24,    120,    0.0,   15.2,   0.00,   0.00, 1023.9,   65.6, -999.0
10-08-2022, 00:28:35,    120,    0.0,   15.1,   0.00,   0.00, 1023.9,   65.5, -999.0
10-08-2022, 00:28:45,    120,    0.0,   15.1,   0.00,   0.00, 1023.9,   65.6, -999.0
10-08-2022, 00:28:54,    120,    0.0,   15.1,   0.00,   0.00, 1023.9,   65.6, -999.0
10-08-2022, 00:29:04,    120,    0.0,   15.1,   0.00,   0.00, 1023.9,   65.5, -999.0
10-08-2022, 00:29:14,    120,    0.0,   15.1,   0.00,   0.00, 1023.9,   65.6, -999.0
10-08-2022, 00:29:24,    120,    0.0,   15.1,   0.00,   0.00, 1023.9,   65.6, -999.0
10-08-2022, 00:29:34,    120,    0.0,   15.1,   0.00,   0.00, 1023.9,   65.5, -999.0
10-08-2022, 00:29:44,    120,    0.0,   15.1,   0.00,   0.00, 1023.9,   65.6, -999.0
10-08-2022, 00:29:54,    120,    0.0,   15.1,   0.00,   0.00, 1023.9,   65.7, -999.0
10-08-2022, 00:30:04,    120,    0.0,   15.1,   0.00,   0.00, 1023.9,   65.7, -999.0
10-08-2022, 00:30:14,    120,    0.0,   15.0,   0.00,   0.00, 1023.9,   65.7, -999.0
10-08-2022, 00:30:24,    120,    0.0,   15.1,   0.00,   0.00, 1023.9,   65.6, -999.0
10-08-2022, 00:30:34,    120,    0.0,   15.1,   0.00,   0.00, 1023.9,   65.7, -999.0
10-08-2022, 00:30:44,    120,    0.0,   15.1,   0.00,   0.00, 1023.9,   65.7, -999.0
10-08-2022, 00:30:54,    120,    0.0,   15.0,   0.00,   0.00, 1023.9,   65.7, -999.0
10-08-2022, 00:31:04,    120,    0.0,   15.1,   0.00,   0.00, 1023.9,   65.7, -999.0
10-08-2022, 00:31:14,    120,    0.0,   15.1,   0.00,   0.00, 1023.9,   65.7, -999.0
10-08-2022, 00:31:23,    120,    0.0,   15.1,   0.00,   0.00, 1023.9,   65.8, -999.0
10-08-2022, 00:31:33,    120,    0.0,   15.1,   0.00,   0.00, 1023.9,   65.7, -999.0
10-08-2022, 00:31:44,    120,    0.0,   15.1,   0.00,   0.00, 1023.9,   65.7, -999.0
10-08-2022, 00:31:53,    120,    0.0,   15.0,   0.00,   0.00, 1023.9,   65.9, -999.0
10-08-2022, 00:32:03,    120,    0.0,   15.1,   0.00,   0.00, 1023.9,   65.7, -999.0
10-08-2022, 00:32:13,    120,    0.0,   15.1,   0.00,   0.00, 1023.9,   65.8, -999.0
10-08-2022, 00:32:23,    120,    0.0,   15.0,   0.00,   0.00, 1023.9,   65.8, -999.0
10-08-2022, 00:32:33,    120,    0.0,   15.1,   0.00,   0.00, 1023.9,   65.7, -999.0
10-08-2022, 00:32:43,    120,    0.0,   15.0,   0.00,   0.00, 1023.9,   65.8, -999.0
10-08-2022, 00:32:53,    120,    0.0,   15.1,   0.00,   0.00, 1023.9,   65.8, -999.0
10-08-2022, 00:33:03,    120,    0.0,   15.1,   0.00,   0.00, 1023.9,   65.8, -999.0
10-08-2022, 00:33:13,    120,    0.0,   15.0,   0.00,   0.00, 1023.9,   65.9, -999.0
10-08-2022, 00:33:23,    120,    0.0,   15.0,   0.00,   0.00, 1023.9,   65.7, -999.0
10-08-2022, 00:33:33,    120,    0.0,   15.0,   0.00,   0.00, 1023.9,   65.9, -999.0
10-08-2022, 00:33:43,    120,    0.0,   15.1,   0.00,   0.00, 1023.9,   65.8, -999.0
10-08-2022, 00:33:53,    120,    0.0,   15.1,   0.00,   0.00, 1023.9,   65.9, -999.0
10-08-2022, 00:34:02,    120,    0.0,   15.0,   0.00,   0.00, 1023.9,   66.0, -999.0
10-08-2022, 00:34:13,    120,    0.0,   15.0,   0.00,   0.00, 1023.9,   65.8, -999.0
10-08-2022, 00:34:22,    120,    0.0,   15.1,   0.00,   0.00, 1023.9,   65.9, -999.0
10-08-2022, 00:34:32,    120,    0.0,   15.1,   0.00,   0.00, 1023.9,   65.9, -999.0
10-08-2022, 00:34:43,    120,    0.0,   15.0,   0.00,   0.00, 1023.9,   65.9, -999.0
10-08-2022, 00:34:52,    120,    0.0,   15.0,   0.00,   0.00, 1023.9,   66.0, -999.0
10-08-2022, 00:35:02,    120,    0.0,   15.0,   0.00,   0.00, 1023.9,   65.8, -999.0
10-08-2022, 00:35:12,    120,    0.0,   15.0,   0.00,   0.00, 1023.9,   65.9, -999.0
10-08-2022, 00:35:22,    120,    0.0,   15.0,   0.00,   0.00, 1023.9,   65.8, -999.0
10-08-2022, 00:35:32,    120,    0.0,   15.0,   0.00,   0.00, 1023.9,   65.8, -999.0
10-08-2022, 00:35:42,    120,    0.0,   15.0,   0.00,   0.00, 1023.9,   65.9, -999.0
10-08-2022, 00:35:52,    120,    0.0,   15.0,   0.00,   0.00, 1023.9,   65.9, -999.0
10-08-2022, 00:36:02,    120,    0.0,   15.0,   0.00,   0.00, 1023.9,   65.9, -999.0
10-08-2022, 00:36:12,    120,    0.0,   15.0,   0.00,   0.00, 1023.9,   65.9, -999.0
10-08-2022, 00:36:22,    120,    0.0,   15.0,   0.00,   0.00, 1023.9,   65.9, -999.0
10-08-2022, 00:36:32,    120,    0.0,   15.0,   0.00,   0.00, 1023.9,   66.0, -999.0
10-08-2022, 00:36:42,    120,    0.0,   15.0,   0.00,   0.00, 1023.9,   66.0, -999.0
10-08-2022, 00:36:52,    120,    0.0,   15.0,   0.00,   0.00, 1023.9,   66.1, -999.0
10-08-2022, 00:37:01,    120,    0.0,   15.0,   0.00,   0.00, 1023.9,   66.1, -999.0
10-08-2022, 00:37:12,    120,    0.0,   15.0,   0.00,   0.00, 1023.9,   66.1, -999.0
10-08-2022, 00:37:22,    120,    0.0,   14.9,   0.00,   0.00, 1023.9,   66.1, -999.0
10-08-2022, 00:37:31,    120,    0.0,   15.0,   0.00,   0.00, 1023.9,   66.1, -999.0
10-08-2022, 00:37:41,    120,    0.0,   14.9,   0.00,   0.00, 1023.9,   66.2, -999.0
10-08-2022, 00:37:51,    120,    0.0,   14.8,   0.00,   0.00, 1023.9,   66.1, -999.0
10-08-2022, 00:38:01,    120,    0.0,   14.9,   0.00,   0.00, 1023.9,   66.1, -999.0
10-08-2022, 00:38:11,    120,    0.0,   14.9,   0.00,   0.00, 1023.9,   66.1, -999.0
10-08-2022, 00:38:21,    120,    0.0,   14.9,   0.00,   0.00, 1023.9,   66.2, -999.0
10-08-2022, 00:38:31,    120,    0.0,   14.8,   0.00,   0.00, 1023.9,   66.2, -999.0
10-08-2022, 00:38:41,    120,    0.0,   14.9,   0.00,   0.00, 1023.9,   66.3, -999.0
10-08-2022, 00:38:51,    120,    0.0,   14.9,   0.00,   0.00, 1023.9,   66.3, -999.0
10-08-2022, 00:39:01,    120,    0.0,   14.9,   0.00,   0.00, 1023.9,   66.3, -999.0
10-08-2022, 00:39:11,    120,    0.0,   14.9,   0.00,   0.00, 1023.9,   66.3, -999.0
10-08-2022, 00:39:21,    120,    0.0,   14.9,   0.00,   0.00, 1023.9,   66.3, -999.0
10-08-2022, 00:39:31,    120,    0.0,   14.9,   0.00,   0.00, 1023.9,   66.4, -999.0
10-08-2022, 00:39:41,    120,    0.0,   14.9,   0.00,   0.00, 1023.9,   66.5, -999.0
10-08-2022, 00:39:51,    120,    0.0,   14.8,   0.00,   0.00, 1023.9,   66.4, -999.0
10-08-2022, 00:40:00,    120,    0.0,   14.9,   0.00,   0.00, 1023.9,   66.5, -999.0
10-08-2022, 00:40:10,    120,    0.0,   14.9,   0.00,   0.00, 1023.9,   66.4, -999.0
10-08-2022, 00:40:21,    120,    0.0,   14.9,   0.00,   0.00, 1023.9,   66.5, -999.0
10-08-2022, 00:40:30,    120,    0.0,   14.8,   0.00,   0.00, 1023.9,   66.5, -999.0
10-08-2022, 00:40:40,    120,    0.0,   14.9,   0.00,   0.00, 1023.9,   66.5, -999.0
10-08-2022, 00:40:50,    120,    0.0,   14.9,   0.00,   0.00, 1023.9,   66.5, -999.0
10-08-2022, 00:41:00,    120,    0.0,   14.9,   0.00,   0.00, 1023.9,   66.5, -999.0
10-08-2022, 00:41:10,    119,    0.0,   14.9,   0.00,   0.00, 1023.9,   66.5, -999.0
10-08-2022, 00:41:20,    120,    0.0,   14.9,   0.00,   0.00, 1023.9,   66.6, -999.0
10-08-2022, 00:41:30,    120,    0.0,   14.9,   0.00,   0.00, 1023.9,   66.6, -999.0
10-08-2022, 00:41:40,    120,    0.0,   14.9,   0.00,   0.00, 1023.9,   66.6, -999.0
10-08-2022, 00:41:50,    120,    0.0,   14.9,   0.00,   0.00, 1023.9,   66.5, -999.0
10-08-2022, 00:42:00,    120,    0.0,   14.9,   0.00,   0.00, 1023.9,   66.5, -999.0
10-08-2022, 00:42:10,    120,    0.0,   14.9,   0.00,   0.00, 1023.9,   66.5, -999.0
10-08-2022, 00:42:20,    120,    0.0,   14.8,   0.00,   0.00, 1023.9,   66.5, -999.0
10-08-2022, 00:42:30,    120,    0.0,   14.8,   0.00,   0.00, 1023.9,   66.5, -999.0
10-08-2022, 00:42:39,    120,    0.0,   14.8,   0.00,   0.00, 1023.9,   66.6, -999.0
10-08-2022, 00:42:50,    120,    0.0,   14.8,   0.00,   0.00, 1023.9,   66.6, -999.0
10-08-2022, 00:42:59,    120,    0.0,   14.8,   0.00,   0.00, 1023.9,   66.6, -999.0
10-08-2022, 00:43:09,    120,    0.0,   14.8,   0.00,   0.00, 1023.9,   66.7, -999.0
10-08-2022, 00:43:19,    120,    0.0,   14.8,   0.00,   0.00, 1023.9,   66.7, -999.0
10-08-2022, 00:43:29,    120,    0.0,   14.8,   0.00,   0.00, 1023.9,   66.9, -999.0
10-08-2022, 00:43:39,    120,    0.0,   14.8,   0.00,   0.00, 1023.9,   66.8, -999.0
10-08-2022, 00:43:49,    120,    0.0,   14.8,   0.00,   0.00, 1023.9,   66.8, -999.0
10-08-2022, 00:43:59,    120,    0.0,   14.7,   0.00,   0.00, 1023.9,   66.9, -999.0
10-08-2022, 00:44:09,    120,    0.0,   14.7,   0.00,   0.00, 1023.9,   67.0, -999.0
10-08-2022, 00:44:19,    120,    0.0,   14.8,   0.00,   0.00, 1023.9,   66.9, -999.0
10-08-2022, 00:44:29,    120,    0.0,   14.8,   0.00,   0.00, 1023.9,   66.9, -999.0
10-08-2022, 00:44:39,    120,    0.0,   14.8,   0.00,   0.00, 1023.9,   66.9, -999.0
10-08-2022, 00:44:49,    120,    0.0,   14.8,   0.00,   0.00, 1023.9,   67.0, -999.0
10-08-2022, 00:44:59,    120,    0.0,   14.8,   0.00,   0.00, 1024.0,   67.0, -999.0
10-08-2022, 00:45:08,    120,    0.0,   14.8,   0.00,   0.00, 1023.9,   67.1, -999.0
10-08-2022, 00:45:19,    120,    0.0,   14.8,   0.00,   0.00, 1023.9,   67.1, -999.0
10-08-2022, 00:45:29,    121,    0.0,   14.8,   0.00,   0.00, 1023.9,   67.1, -999.0
10-08-2022, 00:45:38,    120,    0.0,   14.8,   0.00,   0.00, 1023.9,   67.1, -999.0
10-08-2022, 00:45:48,    120,    0.0,   14.6,   0.00,   0.00, 1023.9,   67.1, -999.0
10-08-2022, 00:45:59,    120,    0.0,   14.7,   0.00,   0.00, 1023.9,   67.0, -999.0
10-08-2022, 00:46:08,    120,    0.0,   14.7,   0.00,   0.00, 1023.9,   66.9, -999.0
10-08-2022, 00:46:18,    120,    0.0,   14.7,   0.00,   0.00, 1023.9,   67.0, -999.0
10-08-2022, 00:46:28,    120,    0.0,   14.7,   0.00,   0.00, 1023.9,   67.0, -999.0
10-08-2022, 00:46:38,    120,    0.0,   14.6,   0.00,   0.00, 1023.9,   67.0, -999.0